[[{"header":{"parameterUnit":"m.s-1","parameterCategory":1,"la1":30.2992,"la2":30.254,"lo1":-89.0895,"lo2":-89.0443,"dy":0.0025,"dx":0.0025,"nx":19,"ny":19,"refTime":"2026-04-07T09:00:00:Z","depth":0,"parameterNumber":2,"parameterNumberName":"U-component_of_WINDS"},"data":[0,0,0,-8.1788,-8.1794,-8.2028,-8.2029,-8.2375,-8.2379,0,0,0,0,0,0,0,0,0,0,0,-8.1749,-8.1753,-8.1788,-8.1795,-8.2028,-8.2029,-8.2374,-8.2379,0,0,0,0,0,0,0,0,0,0,0,-8.1748,-8.1752,-8.1756,-8.1796,-8.2028,-8.2029,-8.2374,-8.218,0,0,0,0,0,0,0,0,0,0,-8.1945,-8.1939,-8.1751,-8.1756,-8.1797,-8.2028,-8.2029,-8.217,-8.2192,-8.229,0,-8.2386,0,-8.2388,-8.2405,-8.2406,0,0,0,-8.1772,-8.1921,-8.1956,-8.1757,-8.18,-8.2028,-8.1916,-8.2182,-8.2207,-8.232,-8.2391,-8.2402,-8.2394,-8.2407,-8.2409,-8.305,-8.3054,0,0,-8.1759,-8.1808,-8.1939,-8.1974,-8.1943,-8.1909,-8.1924,-8.2196,-8.2276,-8.2392,-8.2409,-8.24,-8.241,-8.2413,-8.3046,-8.3051,0,0,0,-8.1737,-8.18,-8.1827,-8.1961,-8.2,-8.1916,-8.1933,-8.2264,-8.2269,-8.2413,-8.2404,-8.2412,-8.2417,-8.3042,-8.3048,-8.3295,0,0,0,-8.1728,-8.1787,-8.1823,-8.1855,-8.1996,-8.2135,-8.1996,-8.225,-8.2279,-8.2402,-8.2413,-8.2421,-8.3037,-8.3045,-8.3279,-8.3404,0,0,0,-8.1724,-8.1786,-8.183,-8.1857,-8.196,-8.213,-8.215,-8.2255,-8.2276,-8.2407,-8.2422,-8.3034,-8.3044,-8.3264,-8.338,-8.3586,0,0,0,-8.1733,-8.2048,-8.1835,-8.2183,-8.1958,-8.2282,-8.2147,-8.2386,-8.2528,-8.2414,-8.3038,-8.3048,-8.3259,-8.3365,-8.357,-8.3767,-8.3854,0,0,-8.2157,-8.21,-8.2301,-8.2117,-8.2491,-8.2242,-8.2651,-8.2735,-8.2703,-8.2936,-8.2951,-8.3284,-8.3378,-8.3582,-8.4326,-8.4395,0,0,0,-8.2452,-8.2596,-8.2685,-8.2822,-8.2894,-8.2965,-8.2981,-8.3012,-8.3207,-8.2833,-8.3413,-8.3468,-8.3585,-8.3677,-8.3736,-8.3833,-8.3092,-8.3091,-8.309,-8.3121,-8.3063,-8.339,-8.336,-8.3495,-8.3507,-8.3611,-8.3654,-8.3556,-8.3694,-8.3763,-8.4221,-8.4331,-8.4374,-8.4477,-8.3863,-8.3864,-8.3865,-8.3865,-8.3736,-8.3931,-8.3792,-8.406,-8.3996,-8.4219,-8.4243,-8.4166,-8.4364,-8.4165,-8.4266,-8.4053,-8.4452,-8.4538,-8.3883,-8.388,-8.3878,-8.3876,-8.3875,-8.4167,-8.425,-8.4282,-8.4473,-8.4627,-8.4584,-8.4781,-8.4715,-8.4655,-8.4755,-8.4819,-8.4815,-8.4801,-8.479,-8.4792,-8.4794,-8.4795,-8.4796,-8.4797,-8.4601,-8.4629,-8.4803,-8.4905,-8.4983,-8.5078,-8.5093,-8.5168,-8.5234,-8.5171,-8.5171,-8.5059,-8.4503,-8.4364,-8.4822,-8.4817,-8.4814,-8.4812,-8.481,-8.5244,-8.5088,-8.5356,-8.5435,-8.5547,-8.5703,-8.5617,-8.5776,-8.5828,-8.5927,-8.5793,-8.5393,-8.533,-8.5283,-8.5167,-8.5805,-8.5805,-8.5805,-8.5805,-8.5607,-8.5568,-8.5827,-8.5957,-8.6076,-8.6025,-8.6329,-8.6343,-8.6333,-8.6361,-8.626,-8.6101,-8.6056,-8.602,-8.5956,-8.5847,-8.6644,-8.6645,-8.6645,-8.5997,-8.5968,-8.6239,-8.6227,-8.631,-8.6382,-8.6664,-8.6818,-8.6774,-8.6678,-8.6382,-8.6346,-8.6089,-8.6009,-8.5906,-8.5809,-8.5608,0,0]},{"header":{"parameterUnit":"m.s-1","parameterCategory":1,"la1":30.2992,"la2":30.254,"lo1":-89.0895,"lo2":-89.0443,"dy":0.0025,"dx":0.0025,"nx":19,"ny":19,"refTime":"2026-04-07T09:00:00:Z","depth":0,"parameterNumber":3,"parameterNumberName":"V-component_of_WINDS"},"data":[0,0,0,-0.611,-0.6112,-0.6203,-0.6203,-0.6307,-0.6307,0,0,0,0,0,0,0,0,0,0,0,-0.6075,-0.6075,-0.611,-0.6112,-0.6203,-0.6203,-0.6306,-0.6307,0,0,0,0,0,0,0,0,0,0,0,-0.6075,-0.6075,-0.6076,-0.6112,-0.6203,-0.6203,-0.6306,-0.6242,0,0,0,0,0,0,0,0,0,0,-0.6156,-0.6116,-0.6075,-0.6076,-0.6113,-0.6203,-0.6204,-0.6239,-0.6246,-0.626,0,-0.6269,0,-0.629,-0.6313,-0.6314,0,0,0,-0.6118,-0.611,-0.6142,-0.6076,-0.6113,-0.6203,-0.6164,-0.6243,-0.6251,-0.6269,-0.6271,-0.6275,-0.6292,-0.6314,-0.6315,-0.6369,-0.6369,0,0,-0.6113,-0.6087,-0.6137,-0.6147,-0.6132,-0.6161,-0.6166,-0.6248,-0.6249,-0.6271,-0.6278,-0.6293,-0.6315,-0.6315,-0.6369,-0.6369,0,0,0,-0.6094,-0.6084,-0.6114,-0.6142,-0.6159,-0.6163,-0.617,-0.6246,-0.6258,-0.6279,-0.6294,-0.6315,-0.6316,-0.637,-0.6369,-0.6342,0,0,0,-0.6092,-0.6073,-0.6111,-0.6096,-0.6158,-0.6204,-0.6165,-0.6252,-0.6262,-0.6294,-0.6315,-0.6317,-0.637,-0.6369,-0.6343,-0.6334,0,0,0,-0.6072,-0.6071,-0.6081,-0.6095,-0.6133,-0.6203,-0.622,-0.6255,-0.6271,-0.6314,-0.6317,-0.637,-0.637,-0.6344,-0.6336,-0.6341,0,0,0,-0.6044,-0.6057,-0.608,-0.6101,-0.6132,-0.6185,-0.622,-0.6261,-0.6294,-0.6316,-0.637,-0.6369,-0.6344,-0.6337,-0.6341,-0.634,-0.6337,0,0,-0.6046,-0.6056,-0.6071,-0.6094,-0.6137,-0.6174,-0.6212,-0.6268,-0.6296,-0.6343,-0.6345,-0.6343,-0.6336,-0.6341,-0.633,-0.6327,0,0,0,-0.6063,-0.6073,-0.6089,-0.612,-0.6161,-0.6196,-0.6248,-0.6268,-0.6309,-0.6315,-0.6347,-0.6344,-0.6347,-0.6348,-0.6346,-0.6351,-0.6369,-0.6369,-0.6369,-0.6031,-0.6064,-0.609,-0.6133,-0.6162,-0.6214,-0.624,-0.6276,-0.6303,-0.6309,-0.6324,-0.6313,-0.6313,-0.6312,-0.6316,-0.6326,-0.6326,-0.6326,-0.6326,-0.6038,-0.6057,-0.6089,-0.6126,-0.616,-0.6191,-0.6241,-0.6258,-0.6292,-0.6306,-0.6311,-0.6323,-0.6308,-0.6313,-0.6324,-0.6325,-0.6325,-0.6325,-0.6325,-0.6021,-0.6036,-0.6059,-0.6104,-0.6135,-0.6179,-0.6209,-0.624,-0.6269,-0.6274,-0.6292,-0.6293,-0.6297,-0.628,-0.628,-0.628,-0.628,-0.628,-0.628,-0.5994,-0.6021,-0.6043,-0.6086,-0.6108,-0.6141,-0.6191,-0.6214,-0.6247,-0.6268,-0.6268,-0.6293,-0.63,-0.6301,-0.628,-0.628,-0.628,-0.628,-0.628,-0.5989,-0.5995,-0.6028,-0.6049,-0.6102,-0.6129,-0.6168,-0.6211,-0.6234,-0.6247,-0.6271,-0.6271,-0.6284,-0.6286,-0.6287,-0.6264,-0.6264,-0.6264,-0.6264,-0.5975,-0.5984,-0.6023,-0.6056,-0.6091,-0.6128,-0.6163,-0.6202,-0.6242,-0.6259,-0.6266,-0.627,-0.6271,-0.6283,-0.6285,-0.6287,-0.6264,-0.6264,-0.6264,-0.5974,-0.5987,-0.6011,-0.605,-0.6092,-0.6128,-0.6161,-0.6197,-0.6244,-0.6265,-0.6272,-0.6272,-0.6278,-0.6279,-0.6301,-0.6303,-0.6307,0,0]}]]